STARLINK-2038 (47654 NORAD) Tracking and Keplerian Element Data

This shows tracking and keplerian element data for the satellite.

Feedback or suggestion? Click here.




ElementValue
Catalog47654
NameSTARLINK-2038
Epoch Orbit175
Epoch Day105.91667824
Epoch Year2021
RAAN181.7918
Inclination53.0416
Eccentricity0.0001275
Argument of Perigee74.8405
Mean Anonmoly327.2737
Mean Motion15.06402565
Decay Rate-0.00025396
L11 47654U 21012AL 21105.91667824 -.00025396 00000-0 -16920-2 0 9991
L22 47654 53.0416 181.7918 0001275 74.8405 327.2737 15.06402565 1753

Live tracking and technical data element details for STARLINK-2038 (NORAD 47654). STARLINK-2038 can be tracked NOW for your location showing map with azimuth and elevation plus other details from your city location.

Track the satellite on the map from your city or location and see movement details for azimuth, elevation, latitude, longitude, range, height, and movement on the map or in text.







IsCatalogInMostPopularTable: catalog: 47654, numindb: 15
Update: records affected: 1



GetName: 47654 STARLINK-2038

Hit Count: updated at: Fri, 16 Apr 2021 11:45:09 GMT